Terminal Aerodrome Forecast
Issued by NWS North Platte, NE

Home | Current Version | Previous Version | Text Only | Print | Product List | Glossary On
Versions: 1 2 3 4 5 6 7 8 9 10 11 12 13 14 15 16 17 18 19 20 21 22 23 24 25 26 27 28 29 30 31 32 33 34 35
000
FTUS43 KLBF 181500 AAA
TAFLBF
TAF AMD
KLBF 181526Z 1815/1912 21004KT P6SM OVC008
      TEMPO 1815/1818 5SM BR OVC006
     FM181800 23007KT P6SM OVC009
     FM190100 25004KT 5SM BR OVC004
     FM191000 VRB03KT 5SM BR SCT150=

USA.gov is the U.S. government's official web portal to all federal, state and local government web resources and services.